[Date Prev][Date Next][Thread Prev][Thread Next][Date Index][Thread Index]

[jamsat-news:964] jas2info #103


=========================   最新情報   ==============================

        Last updated :Fri.13-Nov.-98 17:30 (JST) #103

====================================================================
   
     衛星情報 FOシリーズの軌道要素、テレメトリ、QSOの状況等をま
   とめてみました.

  1)FO−29(ふじ3号)は11月13日 (金)の16:10(JST)の
     パスではJAアナログモードで運用されており、力強いRS59+で
     安定したテレメトリを送信しておりました.
         
  ■ 軌道要素1:「jamsatーkeps:829」より
                 SB KEPS @ AMSAT  $ORB98310.N
                 2Line Orbital Elements 98310.AMSAT

 HR AMSAT ORBITAL ELEMENTS FOR AMATEUR SATELLITES IN NASA FORMAT
 FROM WA5QGD FORT WORTH,TX November 6, 1998
 SEND SUBSCRIBE/UNSUBSCRIBE TO majordomo@amsat.org ONLY
 BID: ORB98310.N
  
  DECODE 2-LINE ELSETS WITH THE FOLLOWING KEY:
  1 AAAAAU 00  0  0 BBBBB.BBBBBBBB  .CCCCCCCC  00000-0  00000-0 0  DDDZ
  2 AAAAA EEE.EEEE FFF.FFFF GGGGGGG HHH.HHHH III.IIII JJ.JJJJJJJJKKKKKZ
  KEY: A-CATALOGNUM B-EPOCHTIME C-DECAY D-ELSETNUM E-INCLINATION F-RAAN
  G-ECCENTRICITY H-ARGPERIGEE I-MNANOM J-MNMOTION K-ORBITNUM Z-CHECKSUM

 TO ALL RADIO AMATEURS BT

  FO-29
  1 24278U 96046B   98308.93972832 -.00000019  00000-0  19804-4 0 02270
  2 24278 098.5282 285.4144 0351089 315.1881 042.1391 13.52651376109492

 ■ 軌道要素2:「jamsatーkeps:830」より
                 SB KEPS @ AMSAT  $ORB98310.O
                 Orbital Elements  98310.OSCAR

  HR AMSAT ORBITAL ELEMENTS FOR OSCAR SATELLITES
  FROM WA5QGD FORT WORTH,TX November 6, 1998
  SEND SUBSCRIBE/UNSUBSCRIBE TO majordomo@amsat.org ONLY
  BID: ORB98310.O
  TO ALL RADIO AMATEURS BT

 Satellite: FO-29
 Catalog number: 24278
 Epoch time:      98308.93972832
 Element set:    0227
 Inclination:      098.5282 deg
 RA of node:       285.4144 deg
 Eccentricity:    0.0351089
 Arg of perigee:   315.1881 deg
 Mean anomaly:     042.1391 deg
 Mean motion:   13.52651376 rev/day
 Decay rate:       -1.9e-07 rev/day^2
 Epoch rev:           10949
 Checksum:              335

 
 -----------------------------------------------------------
  1 )FO−29(ふじ3号)の 11月13日(金)はJAアナログモードで
     運用され、ビーコン波にのったテレメトリの一部分は次のようにな
     っていました.
  					
  AS11063C1  13Nov98
  JST 16:10 -  16:28
                                                                A 87 87 85 
 HI HI AE C7 88 55 00 87 04 DF 09 5F 3B 74 80 60 93 91 B0 8F 8B 8A 87 87 85 
 HI HI AE C7 88 55 00 87 04 DF 09 5F 39 75 80 60 93 91 B0 8E 8B 8A 87 87 85 
 HI HI AE C7 88 55 00 87 04 DF 09 5F 38 75 80 60 94 91 B0 73 8B 8A 87 87 85 
 HI HI AE C7 88 55 00 87 04 DF 09 5F 37 75 7F 60 94 91 B0 76 8B 8A 87 87 85 
 HI HI AE C7 88 55 00 87 04 DF 09 5F 39 74 7A 60 93 91 B0 76 8B 89 87 88 85 
 HI HI AE C7 88 55 00 87 04 DF 09 5F 3D 73 75 60 93 91 B0 67 8B 89 87 88 85 
 HI HI AE C7 88 55 00 87 04 DF 09 5F 48 74 7D 60 93 91 B0    88 89 87 88 85 
 HI HI AE C7 88 55 00 87 04 DF 09 5F    7A 7D 60 93 91 B0 57 8A 88 88 88 85 
 HI HI AE C7 88 55 00 87 04 DF 09 5F 64 7D 7D 60 93 91 B0 71 8A 88 88 88 85 
 HI HI AE C7 88 55 00 87 04 DF 09 5F 69 82 77 60 93 91 B0 81 8A 88 88 88 85 
 HI HI AE C7 88 55 00 87 04 DF 09 5F 6D 86 72 60 93 91 B0 92 8A 88 88 88 85 
 HI HI AE C7 88 55 00 87 04 DF 09 5F 70 8B 6B 60 94 91 B0 68 8A 87 87 88 85 
 HI HI C7 88 55 55 00 87 04 DF 09 5F 71 8E 64 60 94 91 B0  

 2 ) JAアナログCWテレメトリの換算値例
	FO−29(ふじ3号)	
       (上記テレメトリの最後から2行を換算)
  
  テレメトリ   内   容          換算値  単位
   3C	磁気センサーZ軸 =	54901.9	nT
   3D	磁気センサX軸 	=	68137.2	nT
   4A	太陽電池発生電流	=	 1049.0	mA
   4B	B充放電電流	=	 -118.4	mA
   4C	B端子電圧	=	   15.9	V
   4D	B中間端子電圧	=	    7.0	V
   5A	バス電圧 	=  	   17.3	V
   5B	JTA送信電力	=	  577.9	mW
   5C 	構体温度1	=	   28.3	℃
   5D	構体温度2	= 	   29.5	℃
   6A	構体温度3	=	   29.5	℃
   6B	構体温度4	=	   29.1	℃
   6C	Bセル温度	=	   30.2	℃
   
   *計算処理は OFFICE 97 を使用.
   
 ==========================================================================  
  3)FO−20(ふじ 2号)のCWテレメトリは11月7日(土)10:22(JS
      T)のパスでも切れ目の無い連続音になっいました.
 -------------------------------------------------------------------------- 
 
 ■ 軌道要素1 :出典は「ふじ3号」に同じ.
 
  FO-20
  1 20480U 90013C   98309.18538092 -.00000067  00000-0 -70592-4 0 01075
  2 20480 099.0509 181.3144 0540500 312.1964 043.4423 12.83247152409604

  ■ 軌道要素2 :出典は「ふじ3号」に同じ. 
  
  Satellite: FO-20
  Catalog number: 20480
  Epoch time:      98309.18538092
  Element set:    0107
  Inclination:      099.0509 deg
  RA of node:       181.3144 deg
  Eccentricity:    0.0540500
  Arg of perigee:   312.1964 deg
  Mean anomaly:     043.4423 deg
  Mean motion:   12.83247152 rev/day
  Decay rate:       -6.7e-07 rev/day^2
  Epoch rev:           40960
  Checksum:              282
  
 ======================  CWテレメトリー解析プログラム ==================

   連載的になってきましたが JE9PEL/1の脇田美根夫氏がここ半月の統計的
 分析をしておられ、[jamsat-bb:3771]FO-29 CW_tlm(10/13-11/5)として投稿されて
 ますのでご紹介致します.

 -----------------------------------
 衛星FO-29 CWテレメトリ 統計的分析
 -----------------------------------
                       by JE9PEL/1 脇田 (7-Nov.1998)

 1998年10月13日から11月5日にかけて、衛星FO-29からのCWテレメトリを、20日間
 に渡って受信し保存しました。その日に受信できたテレメトリのうち、1フレーム
 ずつを次に抜粋します。


 [10/13 〜 11/5 1998]
 --------------------------------------------------------------------------
 データ 1  13-Oct 14:46JST
 データ 2  14-Oct 15:33JST
 データ 3  15-Oct 16:30JST
 データ 4  17-Oct 14:31JST
 データ 5  18-Oct 15:24JST
 データ 6  19-Oct 16:25JST
 データ 7  20-Oct 15:23JST
 データ 8  22-Oct 13:38JST
 データ 9  23-Oct 16:10JST
 データ10  24-Oct 15:21JST
 データ11  26-Oct 13:27JST
 データ12  27-Oct 16:03JST
 データ13  28-Oct 13:22JST
 データ14  29-Oct 14:19JST
 データ15  30-Oct 14:56JST
 データ16  31-Oct 15:57JST
 データ17  01-Nov 14:51JST
 データ18  02-Nov 15:55JST
 データ19  04-Nov 15:46JST
 データ20  05-Nov 13:10JST

 HI HI 1A 1B 1C 1D 2A 2B 2C 2D 3A 3B 3C 3D 4A 4B 4C 4D 5A 5B 5C 5D 6A 6B 6C
 -- -- -- -- -- -- -- -- -- -- -- -- -- -- -- -- -- -- -- -- -- -- -- -- --
 HI HI AE C7 88 55 00 6C F1 BA 09 16 6B A9 5A 60 94 91 B0 6C 8D 8C 8B 8A 87
 HI HI AE C7 88 55 00 72 9F EC 09 19 4A 7B 75 60 93 90 B0 93 8B 83 8A 8F 86
 HI HI AE C7 88 55 00 75 30 17 09 17 75 3B 76 60 94 91 B0 69 8D 8B 8B 8A 86
 HI HI AE C7 88 55 00 75 DA DF 09 7E 90 88 8B 60 94 91 B0 87 88 86 8E 8D 87
 HI HI AE C7 88 55 80 75 60 7A 09 2B 76 46 80 60 94 92 B0 76 89 86 8C 8E 88
 HI HI AE C7 88 55 00 78 A1 61 09 1A 94 24 7A 60 94 92 B0 70 8B 8B 8D 8B 89
 HI HI AE C7 88 55 00 78 E4 BF 09 59 8C 80 67 60 93 91 B0 76 8F 88 83 8B 84
 HI HI AE C7 88 55 00 78 51 78 09 36 73 4C 72 60 94 91 B0 6F 8B 88 89 8B 86
 HI HI AE C7 88 55 00 7A D8 21 09 16 33 44 74 60 93 91 B0 8F 88 81 8B 8E 85
 HI HI AE C7 88 55 00 7A D9 0F 09 03 46 95 7F 60 94 92 B0 68 8C 86 89 8E 87
 HI HI AE C7 88 55 00 7A FD 49 09 06 5B 27 83 60 94 92 B0 7E 8C 88 8C 8E 88
 HI HI AE C7 88 55 00 7F FD 49 09 06 94 3B 6D 61 95 93 B0 70 8D 8A 8D 8E 8A
 HI HI AE C7 88 55 00 82 70 1B 09 03 72 A3 6B 60 93 91 B0 76 8C 85 82 8A 83
 HI HI AE C7 88 55 00 83 44 7B 09 27 4D 42 7E 5F 93 91 B0 77 88 82 87 8A 84
 HI HI AE C7 88 55 00 83 30 07 09 0B 6B 36 7E 60 94 92 B0 79 8B 85 8B 8D 87
 HI HI AE C7 88 55 00 86 4E 9A 09 02 3A 90 64 60 94 91 B0 76 8A 8C 89 85 86
 HI HI AE C7 88 55 00 86 DB AB 09 15 8B 70 57 60 93 91 B0 7B 89 89 89 86 84
 HI HI AE C7 88 55 00 86 DD 66 09 5E 5C 79 66 60 93 91 B0 66 85 85 8C 89 83
 HI HI AE C7 88 55 00 86 2E B1 09 59 94 52 66 60 94 91 B0 86 88 83 8A 8D 85
 HI HI AE C7 88 55 00 86 F6 40 09 13 49 A7 57 60 93 91 B0 73 8A 87 85 86 84
 --------------------------------------------------------------------------


 なお、各項目の持つ意味は次のとおりです。
 参照:http://www.jarl.or.jp/Japanese/3_Fuji/jatlm.htm
 --------------------------------------------------------------------------
   bit                      bit                      bit
 1A  0  メインリレー      1B  0  太陽センサー      1C  0  Engineering data
     1 DCM                   1  UVC                   1  Engineering data
     2  SRAM                  2  UVCレベル             2  Engineering data
     3  Packet 1200/OFF       3  PCUモード             3  Engineering data
     4  Packet 9600/OFF       4  PCUレベル             4  デジトーカモード
     5  JTA                   5  PCUレベル             5  Engineering data
     6  JTD                   6  バッテリモード        6  UVC ACT/PAS
     7  地磁気センサー        7  バッテリロジック      7  CPU RUN/RESET

 1D  エンジニアリングデータ
 2A  エンジニアリングデータ   3A  姿勢系ステータス
 2B  エンジニアリングデータ   3B  太陽角
 2C  スピン周期         3C  地磁気センサーZ軸
 2D  スピン周期         3D  地磁気センサーX軸

 4A  太陽電池発生電流      5A  バス電圧        6A  構体温度−3
 4B  バッテリ充放電電流     5B  アナログ送信電力    6B  構体温度−4
 4C  バッテリ端子電圧      5C  構体温度−1      6C  バッテリセル温度
 4D  バッテリ中間端子電圧    5D  構体温度−2
 --------------------------------------------------------------------------


 上記の各データの項目のうち、太陽角(3B)、太陽電池発生電流(4A)、アナログ送信
 電力(5B)の三項目を抜粋して次に数値変換します。(by fo29cwt1.exe)
 --------------------------------------------------------------------------
  データ    太陽角  太陽電池発生電流  アナログ送信電力
       1      43.5         882.4         603.9
       2      33.5        1147.1         857.4
       3      42.5        1156.9         584.4
       4     100.5        1362.8         779.4
       5      66.5        1254.9         668.9
       6      35.5        1196.1         629.9
       7     126.5        1009.8         668.9
       8      52.5        1117.7         623.4
       9      43.5        1137.3         831.4
      10      18.5        1245.1         577.9
      11      20.5        1284.3         720.9
      12      20.5        1068.6         629.9
      13      18.5        1049.0         668.9
      14      74.5        1235.3         675.4
      15      29.5        1235.3         688.4
      16      19.5         980.4         668.9
      17      41.5         852.9         701.4
      18     123.5        1000.0         564.9
      19     126.5        1000.0         772.9
      20      45.5         852.9         649.4

    平均    54.2[deg]   1103.4[mA]     678.3[mW]
  標準偏差    36.0         144.3          78.5
  相関係数    太陽角&電流  -0.0751      太陽角&電力  +0.0796
 --------------------------------------------------------------------------



